Regional Weather Roundup
Issued by NWS

Home | Current Version | Previous Version | Graphics & Text | Print | Product List | Glossary On
Versions: 1 2 3 4 5 6 7 8 9 10 11 12 13 14 15 16 17 18 19 20 21 22 23 24 25 26 27 28 29 30 31 32 33 34 35 36 37 38 39 40 41 42 43 44 45 46 47 48 49 50
000
ASUS43 KIND 031959
RWRIN

WEATHER ROUNDUP FOR INDIANA
NATIONAL WEATHER SERVICE INDIANAPOLIS IN
400 PM EDT SUN MAY 03 2015

NOTE: "FAIR" INDICATES FEW OR NO CLOUDS BELOW 12,000 FEET WITH NO
SIGNIFICANT WEATHER AND/OR OBSTRUCTIONS TO VISIBILITY.

* - STATION DOES NOT REPORT WEATHER SUCH AS PRECIPITATION OR FOG.

+ - STATION NOT QUALITY CONTROLLED BY THE NATIONAL WEATHER SERVICE.
    USE DATA WITH CAUTION...ESPECIALLY DEWPOINT AND RELATIVE
    HUMIDITY OBSERVATIONS.

INZ001>003-010>013-019-020-032100-
NORTHWEST INDIANA

CITY           SKY/WX    TMP DP  RH WIND       PRES   REMARKS
GARY /AIRPORT/ PTSUNNY   81 N/A N/A SW21      29.95F

$$

LMZ046-743>745-032100-
SOUTHERN LAKE MICHIGAN

STATION/POSITION TIME  TEMP    WIND        PRES    WAVE
                       AIR SEA DIR/SP/G            HT
                 (UTC) (F)     (DEG/KT/KT) (MB)    (FT)
BURNS HARBOR     1900   77     220/ 11/ 18 1014.6F
MICHIGAN CITY    1900   76     180/ 16/ 21   N/A
5NW MICH CITY    1900   64 51  230/  6/ 10   N/A     1

$$

INZ004-005-014>016-021>024-032100-
NORTH CENTRAL INDIANA

CITY           SKY/WX    TMP DP  RH WIND       PRES   REMARKS
GOSHEN         PTSUNNY   76  47  35 S15G23    30.00F
SOUTH BEND     CLOUDY    79  41  25 SW16      29.99S

$$

INZ006>009-017-018-025>027-032100-
NORTHEAST INDIANA

CITY           SKY/WX    TMP DP  RH WIND       PRES   REMARKS
ANGOLA *+      MOSUNNY   79  72  78 W7        30.01F
FORT WAYNE     MOSUNNY   78  46  32 SW14G23   30.03F

$$

INZ028-029-035-036-043>045-051>053-032100-
WEST CENTRAL INDIANA

CITY           SKY/WX    TMP DP  RH WIND       PRES   REMARKS
CRAWFORDSVL +  SUNNY     77  35  21 SW16G23   30.02F
GREENCASTLE +  SUNNY     75  41  29 S10G17    30.04F
LAFAYETTE      SUNNY     77  44  30 SW13G23   30.00F
TERRE HAUTE    SUNNY     79  46  31 S14G20    30.02F

$$

INZ030>032-037>040-046>048-054>057-064-065-032100-
CENTRAL INDIANA

CITY           SKY/WX    TMP DP  RH WIND       PRES   REMARKS
COLUMBUS       SUNNY     75  39  27 S17       30.06F
FRANKFORT +    MOSUNNY   78  48  34 S10G20    30.04F
GREENWOOD *+   MOSUNNY   79  43  27 S10G18    30.06F
INDIANAPOLIS   PTSUNNY   78  48  34 S10       30.03F
-EAGLE CREEK   MOSUNNY   77  46  33 S9G18     30.03F
MT COMFORT *+  MOSUNNY   79  21  11 SW16      30.05F
SHELBYVILLE    SUNNY     79  49  34 S15       30.04F

$$

INZ033-034-041-042-049-050-058-059-032100-
EAST CENTRAL INDIANA

CITY           SKY/WX    TMP DP  RH WIND       PRES   REMARKS
MUNCIE         SUNNY     77  46  33 SW13G21   30.05F

$$

INZ060-061-067>069-081>083-085>088-032100-
SOUTHWEST INDIANA

CITY           SKY/WX    TMP DP  RH WIND       PRES   REMARKS
EVANSVILLE     SUNNY     79  45  29 SW14      30.06F
HUNTINGBURG *+ SUNNY     79  48  34 S16G22    30.06F

$$

INZ062-063-066-070>080-084-089>092-032100-
SOUTH CENTRAL AND SOUTHEAST INDIANA

CITY           SKY/WX    TMP DP  RH WIND       PRES   REMARKS
BLOOMINGTON    SUNNY     78  44  29 SW9G22    30.05F
MADISON *+     SUNNY     77  41  27 S10       30.10F
SEYMOUR +      SUNNY     81  52  36 SW14      30.06F

$$




USA.gov is the U.S. government's official web portal to all federal, state and local government web resources and services.